Regional Weather Roundup
Issued by NWS

Home | Current Version | Previous Version | Graphics & Text | Print | Product List | Glossary On
Versions: 1 2 3 4 5 6 7 8 9 10 11 12 13 14 15 16 17 18 19 20 21 22 23 24 25 26 27 28 29 30 31 32 33 34 35 36 37 38 39 40 41 42 43 44 45 46 47 48 49 50
000
ASUS43 KOAX 211202
RWRNE

WEATHER ROUNDUP FOR NEBRASKA
NATIONAL WEATHER SERVICE OMAHA NE
700 AM CDT SAT APR 21 2018

NOTES: SATELLITE DATA IS BEING USED TO AUGMENT CLOUD COVER ABOVE
       12000 FEET.
       "FAIR" INDICATES FEW OR NO CLOUDS BELOW 12,000 FEET WITH NO
       SIGNIFICANT WEATHER AND/OR OBSTRUCTIONS TO VISIBILITY.


NEZ001>004-019>022-054>056-211300-
NEBRASKA PANHANDLE

CITY           SKY/WX    TMP DP  RH WIND       PRES   REMARKS
SCOTTSBLUFF    LGT SNOW  34  32  92 E6        30.20S WCI  29
6HR MIN TEMP:  33; 6HR MAX TEMP:  37; 6HR PCP:  0.10;

ALLIANCE       LGT SNOW  33  33 100 SE8       30.20R FOG     WCI  26
6HR MIN TEMP:  33; 6HR MAX TEMP:  37; 6HR PCP:  0.19;

CHADRON        CLOUDY    37  35  92 CALM      30.21S
6HR MIN TEMP:  37; 6HR MAX TEMP:  40; 6HR PCP: TRACE;

GORDON         CLOUDY    38  36  93 SE5       30.22S WCI  34
6HR MIN TEMP:  38; 6HR MAX TEMP:  38;

KIMBALL        LGT SNOW  32  32 100 E5        30.17R WCI  28
SIDNEY         LGT SNOW  33  33 100 E7        30.18R FOG     WCI  27
6HR MIN TEMP:  33; 6HR MAX TEMP:  35; 6HR PCP:  0.01;

$$

NEZ057>060-069>072-079>082-211300-
SOUTHWEST NEBRASKA

CITY           SKY/WX    TMP DP  RH WIND       PRES   REMARKS
NORTH PLATTE   LGT RAIN  39  37  92 SE10      30.23S WCI  32
6HR MIN TEMP:  39; 6HR MAX TEMP:  42; 6HR PCP:  0.12;

IMPERIAL       LGT RAIN  38  38 100 E9        30.19R WCI  31
6HR MIN TEMP:  38; 6HR MAX TEMP:  40; 6HR PCP:  0.20;

LEXINGTON      DRIZZLE   40  39  93 NE7       30.22S
MCCOOK         CLOUDY    40  39  97 E8        30.20R WCI  34
6HR MIN TEMP:  40; 6HR MAX TEMP:  42; 6HR PCP:  0.07;

OGALLALA       LGT RAIN  37  36  94 E8        30.21S WCI  31
$$

NEZ005>010-023>029-035>040-094-211300-
NORTH CENTRAL NEBRASKA

CITY           SKY/WX    TMP DP  RH WIND       PRES   REMARKS
VALENTINE      CLOUDY    41  38  89 S6        30.27S
6HR MIN TEMP:  41; 6HR MAX TEMP:  42; 6HR PCP:  0.01;

AINSWORTH      LGT RAIN  38  38  97 S6        30.29R WCI  34
BROKEN BOW     LGT RAIN  40  37  89 NE6       30.24F
6HR MIN TEMP:  40; 6HR MAX TEMP:  44; 6HR PCP:  0.07;

O`NEILL        CLOUDY    43  39  87 CALM      30.30R
ORD            CLOUDY    40  39  97 N6        30.26S FOG
6HR MIN TEMP:  39; 6HR MAX TEMP:  46; 6HR PCP:  0.09;

THEDFORD       DRIZZLE   38  37  96 SE3       30.26S
$$

NEZ041-046>049-061>064-073>077-083>087-211300-
SOUTH CENTRAL NEBRASKA

CITY           SKY/WX    TMP DP  RH WIND       PRES   REMARKS
GRAND ISLAND   CLOUDY    42  39  89 N9        30.25R
6HR MIN TEMP:  41; 6HR MAX TEMP:  45; 6HR PCP:  0.08;

AURORA         CLOUDY    42  40  93 NE5       30.25R
HASTINGS       CLOUDY    41  40  96 NE5       30.23S
6HR MIN TEMP:  41; 6HR MAX TEMP:  44; 6HR PCP:  0.08;

HEBRON         CLOUDY    44  39  83 CALM      30.23S
HOLDREGE       CLOUDY    40  40 100 NE13      30.20F WCI  32
KEARNEY        CLOUDY    40  38  93 NE8       30.23F WCI  34
YORK             N/A     41  41 100 NE7       30.25R
$$

NEZ011>018-030>034-042>045-211300-
NORTHEAST NEBRASKA

CITY           SKY/WX    TMP DP  RH WIND       PRES   REMARKS
NORFOLK        CLOUDY    43  35  73 CALM      30.27S
6HR MIN TEMP:  41; 6HR MAX TEMP:  45; 6HR PCP: TRACE;

ALBION         CLOUDY    42  38  87 NW5       30.28R
BLAIR          CLOUDY    47  30  52 E12       30.27F
COLUMBUS       CLOUDY    44  34  67 E10       30.27
FREMONT        CLOUDY    48  32  53 E7        30.28F
TEKAMAH        CLOUDY    42  37  82 N7        30.30S
6HR MIN TEMP:  41; 6HR MAX TEMP:  47;

WAYNE          CLOUDY    42  39  87 E7        30.30R
$$

NEZ050>053-065>068-078-088>093-211300-
SOUTHEAST NEBRASKA

CITY           SKY/WX    TMP DP  RH WIND       PRES   REMARKS
LINCOLN        CLOUDY    49  27  42 SE6       30.27R
6HR MIN TEMP:  48; 6HR MAX TEMP:  53;

OMAHA EPPLEY   CLOUDY    50  26  39 VRB5      30.28F
6HR MIN TEMP:  48; 6HR MAX TEMP:  53;

BEATRICE       CLOUDY    50  33  52 SE10G16   30.25R
FALLS CITY     LGT RAIN  46  32  58 SE7       30.28R
6HR MIN TEMP:  46; 6HR MAX TEMP:  50; 6HR PCP: TRACE;

NEBRASKA CITY  CLOUDY    47  29  50 E6        30.27R
PLATTSMOUTH    CLOUDY    47  26  44 NE7       30.26F
$$

NEZ044-045-051>053-067-211300-
OMAHA AREA

CITY           SKY/WX    TMP DP  RH WIND       PRES   REMARKS
OMAHA EPPLEY   CLOUDY    50  26  39 VRB5      30.28F
6HR MIN TEMP:  48; 6HR MAX TEMP:  53;

BLAIR          CLOUDY    47  30  52 E12       30.27F
FREMONT        CLOUDY    48  32  53 E7        30.28F
MILLARD        CLOUDY    50  28  43 E5        30.28S
OFFUTT AFB     MOCLDY    48  26  42 E7        30.26F
PLATTSMOUTH    CLOUDY    47  26  44 NE7       30.26F
$$




USA.gov is the U.S. government's official web portal to all federal, state and local government web resources and services.